Time,TemperatureF,DewpointF,PressureIn,WindDirection,WindDirectionDegrees,WindSpeedMPH,WindSpeedGustMPH,Humidity,HourlyPrecipIn,Conditions,Clouds,dailyrainin,SoftwareType,DateUTC
2013-10-23 00:02:00,33.1,28.7,29.94,WNW,292,0.0,0.0,84,0.00,,,0.00,WUHU21623XXSP,2013-10-23 05:02:00,
2013-10-23 00:07:00,32.9,28.6,29.95,WNW,292,0.0,0.0,84,0.00,,,0.00,WUHU21623XXSP,2013-10-23 05:07:00,
2013-10-23 00:12:00,32.9,28.6,29.95,WNW,292,0.0,0.0,84,0.00,,,0.00,WUHU21623XXSP,2013-10-23 05:12:00,
2013-10-23 00:17:00,32.7,28.4,29.95,WNW,292,0.0,0.0,84,0.00,,,0.00,WUHU21623XXSP,2013-10-23 05:17:00,
2013-10-23 00:22:00,32.7,28.4,29.95,WNW,292,0.0,0.0,84,0.00,,,0.00,WUHU21623XXSP,2013-10-23 05:22:00,
2013-10-23 00:27:00,32.7,28.4,29.95,WNW,292,0.0,0.0,84,0.00,,,0.00,WUHU21623XXSP,2013-10-23 05:27:00,
2013-10-23 00:32:00,32.5,27.9,29.95,WNW,292,0.0,0.0,83,0.00,,,0.00,WUHU21623XXSP,2013-10-23 05:32:00,
2013-10-23 00:37:00,32.7,28.1,29.95,WNW,292,0.0,0.0,83,0.00,,,0.00,WUHU21623XXSP,2013-10-23 05:37:00,
2013-10-23 00:42:00,32.5,27.9,29.95,WNW,292,0.0,0.0,83,0.00,,,0.00,WUHU21623XXSP,2013-10-23 05:42:00,
2013-10-23 00:47:00,32.4,27.8,29.94,WNW,292,0.0,0.0,83,0.00,,,0.00,WUHU21623XXSP,2013-10-23 05:47:00,
2013-10-23 00:52:00,32.4,27.8,29.94,WNW,292,0.0,0.0,83,0.00,,,0.00,WUHU21623XXSP,2013-10-23 05:52:00,
2013-10-23 00:57:00,32.4,27.8,29.94,WNW,292,1.8,2.5,83,0.00,,,0.00,WUHU21623XXSP,2013-10-23 05:57:00,
2013-10-23 01:02:00,32.2,27.6,29.94,WNW,292,0.0,2.5,83,0.00,,,0.00,WUHU21623XXSP,2013-10-23 06:02:00,
2013-10-23 01:07:00,32.2,27.6,29.95,WNW,292,0.0,0.0,83,0.00,,,0.00,WUHU21623XXSP,2013-10-23 06:07:00,
2013-10-23 01:12:00,32.4,27.5,29.94,WNW,292,0.0,0.0,82,0.00,,,0.00,WUHU21623XXSP,2013-10-23 06:12:00,
2013-10-23 01:17:00,32.4,27.5,29.95,WNW,292,0.0,0.0,82,0.00,,,0.00,WUHU21623XXSP,2013-10-23 06:17:00,
2013-10-23 01:22:00,32.4,27.5,29.94,WNW,292,0.0,0.0,82,0.00,,,0.00,WUHU21623XXSP,2013-10-23 06:22:00,
2013-10-23 01:27:00,32.4,27.5,29.94,WNW,292,0.0,0.0,82,0.00,,,0.00,WUHU21623XXSP,2013-10-23 06:27:00,
2013-10-23 01:32:00,32.4,27.5,29.94,WNW,292,0.0,0.0,82,0.00,,,0.00,WUHU21623XXSP,2013-10-23 06:32:00,
2013-10-23 01:37:00,32.4,27.5,29.94,WNW,292,0.0,0.0,82,0.00,,,0.00,WUHU21623XXSP,2013-10-23 06:37:00,
2013-10-23 01:42:00,32.5,27.7,29.94,WNW,292,0.0,0.0,82,0.00,,,0.00,WUHU21623XXSP,2013-10-23 06:42:00,
2013-10-23 01:47:00,32.5,27.7,29.94,WNW,292,0.0,0.0,82,0.00,,,0.00,WUHU21623XXSP,2013-10-23 06:47:00,
2013-10-23 01:52:00,32.7,27.8,29.95,WNW,292,0.0,0.0,82,0.00,,,0.00,WUHU21623XXSP,2013-10-23 06:52:00,
2013-10-23 01:57:00,32.7,27.8,29.95,WNW,292,0.0,0.0,82,0.00,,,0.00,WUHU21623XXSP,2013-10-23 06:57:00,
2013-10-23 02:02:00,32.9,28.0,29.95,WNW,292,0.0,0.0,82,0.00,,,0.00,WUHU21623XXSP,2013-10-23 07:02:00,
2013-10-23 02:07:00,32.9,28.0,29.95,WNW,292,0.0,0.0,82,0.00,,,0.00,WUHU21623XXSP,2013-10-23 07:07:00,
2013-10-23 02:12:00,32.9,28.0,29.95,WNW,292,0.0,0.0,82,0.00,,,0.00,WUHU21623XXSP,2013-10-23 07:12:00,
2013-10-23 02:17:00,32.9,28.0,29.94,WNW,292,0.0,0.0,82,0.00,,,0.00,WUHU21623XXSP,2013-10-23 07:17:00,
2013-10-23 02:22:00,33.3,28.3,29.95,WNW,292,0.0,0.0,82,0.00,,,0.00,WUHU21623XXSP,2013-10-23 07:22:00,
2013-10-23 02:27:00,33.3,28.1,29.95,WNW,292,0.0,0.0,82,0.00,,,0.00,WUHU21623XXSP,2013-10-23 07:27:00,
2013-10-23 02:32:00,33.3,28.3,29.95,WNW,292,0.0,0.0,82,0.00,,,0.00,WUHU21623XXSP,2013-10-23 07:32:00,
2013-10-23 02:37:00,33.3,28.3,29.95,WNW,292,0.0,0.0,82,0.00,,,0.00,WUHU21623XXSP,2013-10-23 07:37:00,
2013-10-23 02:42:00,33.3,28.0,29.95,WNW,292,0.0,0.0,81,0.00,,,0.00,WUHU21623XXSP,2013-10-23 07:42:00,
2013-10-23 02:47:00,33.3,28.0,29.95,WNW,292,0.0,0.0,81,0.00,,,0.00,WUHU21623XXSP,2013-10-23 07:47:00,
2013-10-23 02:52:00,33.3,28.0,29.95,WNW,292,0.0,0.0,81,0.00,,,0.00,WUHU21623XXSP,2013-10-23 07:52:00,
2013-10-23 02:57:00,33.3,28.0,29.94,WNW,292,0.0,0.0,81,0.00,,,0.00,WUHU21623XXSP,2013-10-23 07:57:00,
2013-10-23 03:02:00,33.3,28.0,29.94,WNW,292,0.0,0.0,81,0.00,,,0.00,WUHU21623XXSP,2013-10-23 08:02:00,
2013-10-23 03:07:00,33.3,28.0,29.94,WNW,292,0.0,0.0,81,0.00,,,0.00,WUHU21623XXSP,2013-10-23 08:07:00,
2013-10-23 03:12:00,33.4,28.2,29.94,WNW,292,0.0,0.0,81,0.00,,,0.00,WUHU21623XXSP,2013-10-23 08:12:00,
2013-10-23 03:17:00,33.4,28.2,29.94,WNW,292,0.0,0.0,81,0.00,,,0.00,WUHU21623XXSP,2013-10-23 08:17:00,
2013-10-23 03:22:00,33.4,27.9,29.94,WNW,292,0.0,0.0,80,0.00,,,0.00,WUHU21623XXSP,2013-10-23 08:22:00,
2013-10-23 03:27:00,33.4,27.9,29.94,WNW,292,0.0,0.0,80,0.00,,,0.00,WUHU21623XXSP,2013-10-23 08:27:00,
2013-10-23 03:32:00,33.4,27.9,29.94,WNW,292,0.0,0.0,80,0.00,,,0.00,WUHU21623XXSP,2013-10-23 08:32:00,
2013-10-23 03:37:00,33.4,27.9,29.94,WNW,292,0.0,0.0,80,0.00,,,0.00,WUHU21623XXSP,2013-10-23 08:37:00,
2013-10-23 03:42:00,33.6,28.1,29.94,WNW,292,0.2,0.2,80,0.00,,,0.00,WUHU21623XXSP,2013-10-23 08:42:00,
2013-10-23 03:47:00,33.4,27.9,29.94,WNW,292,0.0,0.2,80,0.00,,,0.00,WUHU21623XXSP,2013-10-23 08:47:00,
2013-10-23 03:52:00,33.4,27.9,29.94,WNW,292,0.0,0.0,80,0.00,,,0.00,WUHU21623XXSP,2013-10-23 08:52:00,
2013-10-23 03:57:00,33.3,27.7,29.94,WNW,292,0.0,0.0,80,0.00,,,0.00,WUHU21623XXSP,2013-10-23 08:57:00,
2013-10-23 04:02:00,33.3,27.4,29.95,WNW,292,0.0,0.0,79,0.00,,,0.00,WUHU21623XXSP,2013-10-23 09:02:00,
2013-10-23 04:07:00,33.3,27.4,29.95,WNW,292,0.0,0.0,79,0.00,,,0.00,WUHU21623XXSP,2013-10-23 09:07:00,
2013-10-23 04:12:00,33.1,27.2,29.95,WNW,292,0.0,0.0,79,0.00,,,0.00,WUHU21623XXSP,2013-10-23 09:12:00,
2013-10-23 04:17:00,32.9,27.1,29.95,WNW,292,0.0,0.0,79,0.00,,,0.00,WUHU21623XXSP,2013-10-23 09:17:00,
2013-10-23 04:22:00,32.9,27.1,29.95,WNW,292,0.0,0.0,79,0.00,,,0.00,WUHU21623XXSP,2013-10-23 09:22:00,
2013-10-23 04:27:00,32.7,26.6,29.95,WNW,292,0.0,0.0,78,0.00,,,0.00,WUHU21623XXSP,2013-10-23 09:27:00,
2013-10-23 04:32:00,32.5,26.4,29.95,WNW,292,0.0,0.0,78,0.00,,,0.00,WUHU21623XXSP,2013-10-23 09:32:00,
2013-10-23 04:37:00,32.4,26.3,29.95,WNW,292,0.0,0.0,78,0.00,,,0.00,WUHU21623XXSP,2013-10-23 09:37:00,
2013-10-23 04:42:00,32.4,26.3,29.95,WNW,292,0.0,0.0,78,0.00,,,0.00,WUHU21623XXSP,2013-10-23 09:42:00,
2013-10-23 04:47:00,32.2,26.1,29.96,WNW,292,0.0,0.0,78,0.00,,,0.00,WUHU21623XXSP,2013-10-23 09:47:00,
2013-10-23 04:52:00,32.2,26.1,29.96,WNW,292,0.0,0.0,78,0.00,,,0.00,WUHU21623XXSP,2013-10-23 09:52:00,
2013-10-23 04:57:00,31.8,25.8,29.96,WNW,292,0.0,0.0,78,0.00,,,0.00,WUHU21623XXSP,2013-10-23 09:57:00,
2013-10-23 05:01:00,31.6,25.6,29.96,WNW,292,0.0,0.0,78,0.00,,,0.00,WUHU21623XXSP,2013-10-23 10:01:00,
2013-10-23 05:06:00,31.5,25.4,29.96,WNW,292,0.0,0.0,78,0.00,,,0.00,WUHU21623XXSP,2013-10-23 10:06:00,
2013-10-23 05:11:00,31.3,25.2,29.96,WNW,292,0.0,0.0,78,0.00,,,0.00,WUHU21623XXSP,2013-10-23 10:11:00,
2013-10-23 05:16:00,31.3,25.2,29.96,WNW,292,0.0,0.0,78,0.00,,,0.00,WUHU21623XXSP,2013-10-23 10:16:00,
2013-10-23 05:21:00,31.1,25.1,29.96,WNW,292,0.0,0.0,78,0.00,,,0.00,WUHU21623XXSP,2013-10-23 10:21:00,
2013-10-23 05:26:00,30.9,24.9,29.96,WNW,292,0.0,0.0,78,0.00,,,0.00,WUHU21623XXSP,2013-10-23 10:26:00,
2013-10-23 05:31:00,30.9,24.9,29.96,WNW,292,0.0,0.0,78,0.00,,,0.00,WUHU21623XXSP,2013-10-23 10:31:00,
2013-10-23 05:36:00,30.9,24.9,29.97,WNW,292,0.0,0.0,78,0.00,,,0.00,WUHU21623XXSP,2013-10-23 10:36:00,
2013-10-23 05:41:00,30.7,24.7,29.97,WNW,292,0.0,0.0,78,0.00,,,0.00,WUHU21623XXSP,2013-10-23 10:41:00,
2013-10-23 05:46:00,30.7,24.7,29.97,WNW,292,0.0,0.0,78,0.00,,,0.00,WUHU21623XXSP,2013-10-23 10:46:00,
2013-10-23 05:51:00,30.7,24.7,29.97,WNW,292,0.0,1.8,78,0.00,,,0.00,WUHU21623XXSP,2013-10-23 10:51:00,
2013-10-23 05:56:00,30.9,24.9,29.97,WNW,292,0.0,1.8,78,0.00,,,0.00,WUHU21623XXSP,2013-10-23 10:56:00,
2013-10-23 06:02:00,30.9,25.2,29.97,WNW,292,0.0,0.7,79,0.00,,,0.00,WUHU21623XXSP,2013-10-23 11:02:00,
2013-10-23 06:07:00,30.9,25.2,29.98,WNW,292,0.0,0.0,79,0.00,,,0.00,WUHU21623XXSP,2013-10-23 11:07:00,
2013-10-23 06:12:00,30.9,25.2,29.98,WNW,292,0.0,0.0,79,0.00,,,0.00,WUHU21623XXSP,2013-10-23 11:12:00,
2013-10-23 06:16:00,31.1,25.4,29.98,WNW,292,0.0,0.0,79,0.00,,,0.00,WUHU21623XXSP,2013-10-23 11:16:00,
2013-10-23 06:21:00,31.1,25.4,29.98,WNW,292,0.0,0.0,79,0.00,,,0.00,WUHU21623XXSP,2013-10-23 11:21:00,
2013-10-23 06:26:00,31.3,25.6,29.98,WNW,292,0.0,0.0,79,0.00,,,0.00,WUHU21623XXSP,2013-10-23 11:26:00,
2013-10-23 06:31:00,31.3,25.6,29.98,WNW,292,0.0,0.0,79,0.00,,,0.00,WUHU21623XXSP,2013-10-23 11:31:00,
2013-10-23 06:36:00,31.3,25.6,29.98,WNW,292,0.0,0.0,79,0.00,,,0.00,WUHU21623XXSP,2013-10-23 11:36:00,
2013-10-23 06:41:00,31.3,25.6,29.98,WNW,292,0.0,0.0,79,0.00,,,0.00,WUHU21623XXSP,2013-10-23 11:41:00,
2013-10-23 06:46:00,31.3,25.6,29.98,WNW,292,0.0,0.0,79,0.00,,,0.00,WUHU21623XXSP,2013-10-23 11:46:00,
2013-10-23 06:51:00,31.1,25.4,29.98,WNW,292,0.0,0.0,79,0.00,,,0.00,WUHU21623XXSP,2013-10-23 11:51:00,
2013-10-23 06:56:00,31.1,25.4,29.98,WNW,292,0.0,0.0,79,0.00,,,0.00,WUHU21623XXSP,2013-10-23 11:56:00,
2013-10-23 07:01:00,30.9,25.2,29.98,WNW,292,0.0,0.0,79,0.00,,,0.00,WUHU21623XXSP,2013-10-23 12:01:00,
2013-10-23 07:06:00,30.9,25.2,29.98,WNW,292,0.0,0.0,79,0.00,,,0.00,WUHU21623XXSP,2013-10-23 12:06:00,
2013-10-23 07:11:00,30.9,25.2,29.98,WNW,292,0.0,0.0,79,0.00,,,0.00,WUHU21623XXSP,2013-10-23 12:11:00,
2013-10-23 07:16:00,30.7,25.0,29.98,WNW,292,0.0,0.0,79,0.00,,,0.00,WUHU21623XXSP,2013-10-23 12:16:00,
2013-10-23 07:21:00,30.6,24.8,29.98,WNW,292,0.0,0.0,79,0.00,,,0.00,WUHU21623XXSP,2013-10-23 12:21:00,
2013-10-23 07:26:00,30.4,24.7,29.99,WNW,292,0.0,0.0,79,0.00,,,0.00,WUHU21623XXSP,2013-10-23 12:26:00,
2013-10-23 07:31:00,30.4,24.7,29.98,WNW,292,0.0,0.0,79,0.00,,,0.00,WUHU21623XXSP,2013-10-23 12:31:00,
2013-10-23 07:36:00,30.4,24.7,29.98,WNW,292,0.0,0.0,79,0.00,,,0.00,WUHU21623XXSP,2013-10-23 12:36:00,
2013-10-23 07:41:00,30.4,24.7,29.98,WNW,292,0.0,0.0,79,0.00,,,0.00,WUHU21623XXSP,2013-10-23 12:41:00,
2013-10-23 07:46:00,30.0,24.3,29.98,WNW,292,0.0,0.0,79,0.00,,,0.00,WUHU21623XXSP,2013-10-23 12:46:00,
2013-10-23 07:51:00,30.0,24.3,29.98,WNW,292,0.0,0.0,79,0.00,,,0.00,WUHU21623XXSP,2013-10-23 12:51:00,
2013-10-23 07:56:00,30.0,24.3,29.99,WNW,292,0.0,0.0,79,0.00,,,0.00,WUHU21623XXSP,2013-10-23 12:56:00,
2013-10-23 08:01:00,30.0,24.3,30.00,WNW,292,0.0,0.0,79,0.00,,,0.00,WUHU21623XXSP,2013-10-23 13:01:00,
2013-10-23 08:06:00,30.0,24.3,30.00,WNW,292,0.0,0.0,79,0.00,,,0.00,WUHU21623XXSP,2013-10-23 13:06:00,
2013-10-23 08:11:00,30.4,24.7,30.00,WNW,292,0.0,0.0,79,0.00,,,0.00,WUHU21623XXSP,2013-10-23 13:11:00,
2013-10-23 08:16:00,30.6,25.2,30.00,WNW,292,0.0,0.0,80,0.00,,,0.00,WUHU21623XXSP,2013-10-23 13:16:00,
2013-10-23 08:21:00,30.7,25.3,30.00,WNW,292,0.0,0.0,80,0.00,,,0.00,WUHU21623XXSP,2013-10-23 13:21:00,
2013-10-23 08:26:00,30.9,25.5,30.00,WNW,292,0.0,0.0,80,0.00,,,0.00,WUHU21623XXSP,2013-10-23 13:26:00,
2013-10-23 08:31:00,31.3,25.9,30.01,WNW,292,0.0,0.0,80,0.00,,,0.00,WUHU21623XXSP,2013-10-23 13:31:00,
2013-10-23 08:36:00,31.5,26.1,30.01,WNW,292,0.9,0.9,80,0.00,,,0.00,WUHU21623XXSP,2013-10-23 13:36:00,
2013-10-23 08:41:00,31.6,26.2,30.01,WNW,292,0.0,0.9,80,0.00,,,0.00,WUHU21623XXSP,2013-10-23 13:41:00,
2013-10-23 08:46:00,32.2,26.8,30.01,WNW,292,0.0,0.0,80,0.00,,,0.00,WUHU21623XXSP,2013-10-23 13:46:00,
2013-10-23 08:51:00,32.4,26.9,30.01,WNW,292,1.6,1.6,80,0.00,,,0.00,WUHU21623XXSP,2013-10-23 13:51:00,
2013-10-23 08:56:00,32.7,27.2,30.01,WNW,292,0.0,1.6,80,0.00,,,0.00,WUHU21623XXSP,2013-10-23 13:56:00,
2013-10-23 09:01:00,32.9,27.4,30.01,WNW,292,0.0,0.0,80,0.00,,,0.00,WUHU21623XXSP,2013-10-23 14:01:00,
2013-10-23 09:06:00,33.3,27.6,30.01,WNW,292,0.0,0.0,80,0.00,,,0.00,WUHU21623XXSP,2013-10-23 14:06:00,
2013-10-23 09:11:00,33.8,28.2,30.01,WNW,292,0.0,0.0,80,0.00,,,0.00,WUHU21623XXSP,2013-10-23 14:11:00,
2013-10-23 09:16:00,34.2,28.3,30.01,WSW,247,0.0,0.0,79,0.00,,,0.00,WUHU21623XXSP,2013-10-23 14:16:00,
2013-10-23 09:21:00,34.2,28.3,30.01,WSW,247,0.0,0.0,79,0.00,,,0.00,WUHU21623XXSP,2013-10-23 14:21:00,
2013-10-23 09:26:00,34.5,28.6,30.01,WNW,292,0.0,0.0,79,0.00,,,0.00,WUHU21623XXSP,2013-10-23 14:26:00,
2013-10-23 09:31:00,34.7,28.8,30.00,West,270,0.0,0.0,79,0.00,,,0.00,WUHU21623XXSP,2013-10-23 14:31:00,
2013-10-23 09:36:00,35.1,29.2,30.00,ENE,67,0.0,0.0,79,0.00,,,0.00,WUHU21623XXSP,2013-10-23 14:36:00,
2013-10-23 09:41:00,35.4,29.5,30.01,West,270,2.9,2.9,79,0.00,,,0.00,WUHU21623XXSP,2013-10-23 14:41:00,
2013-10-23 09:46:00,35.6,29.4,30.00,WSW,247,0.0,2.9,78,0.00,,,0.00,WUHU21623XXSP,2013-10-23 14:46:00,
2013-10-23 09:51:00,36.0,29.7,30.01,NW,315,2.0,2.0,78,0.00,,,0.00,WUHU21623XXSP,2013-10-23 14:51:00,
2013-10-23 09:56:00,36.5,30.6,30.00,WNW,292,0.0,2.0,79,0.00,,,0.00,WUHU21623XXSP,2013-10-23 14:56:00,
2013-10-23 10:01:00,37.2,31.3,30.01,WNW,292,1.1,1.1,79,0.00,,,0.00,WUHU21623XXSP,2013-10-23 15:01:00,
2013-10-23 10:06:00,37.4,31.2,30.01,WNW,292,4.0,4.0,78,0.00,,,0.00,WUHU21623XXSP,2013-10-23 15:06:00,
2013-10-23 10:11:00,37.4,30.8,30.01,WNW,292,0.0,4.0,77,0.00,,,0.00,WUHU21623XXSP,2013-10-23 15:11:00,
2013-10-23 10:16:00,37.8,30.9,30.01,WNW,292,2.7,5.4,76,0.00,,,0.00,WUHU21623XXSP,2013-10-23 15:16:00,
2013-10-23 10:21:00,37.6,30.7,30.01,West,270,1.6,5.4,76,0.00,,,0.00,WUHU21623XXSP,2013-10-23 15:21:00,
2013-10-23 10:26:00,37.8,30.5,30.01,NW,315,1.1,1.6,75,0.00,,,0.00,WUHU21623XXSP,2013-10-23 15:26:00,
2013-10-23 10:31:00,38.1,30.9,30.01,NNW,337,0.0,1.1,75,0.00,,,0.00,WUHU21623XXSP,2013-10-23 15:31:00,
2013-10-23 10:36:00,38.3,31.0,30.01,West,270,0.0,0.0,75,0.00,,,0.00,WUHU21623XXSP,2013-10-23 15:36:00,
2013-10-23 10:41:00,38.5,31.2,30.01,WNW,292,0.0,0.0,75,0.00,,,0.00,WUHU21623XXSP,2013-10-23 15:41:00,
2013-10-23 10:46:00,38.5,30.9,30.01,WNW,292,1.6,3.6,74,0.00,,,0.00,WUHU21623XXSP,2013-10-23 15:46:00,
2013-10-23 10:51:00,38.7,31.0,30.01,SW,225,0.0,3.6,74,0.00,,,0.00,WUHU21623XXSP,2013-10-23 15:51:00,
2013-10-23 10:56:00,38.7,30.7,30.01,NW,315,0.0,2.9,73,0.00,,,0.00,WUHU21623XXSP,2013-10-23 15:56:00,
2013-10-23 11:01:00,38.8,30.9,30.01,WNW,292,3.6,3.6,73,0.00,,,0.00,WUHU21623XXSP,2013-10-23 16:01:00,
2013-10-23 11:06:00,39.6,31.9,30.01,SW,225,0.0,3.6,74,0.00,,,0.00,WUHU21623XXSP,2013-10-23 16:06:00,
2013-10-23 11:11:00,40.5,32.8,30.01,West,270,0.9,0.9,74,0.00,,,0.00,WUHU21623XXSP,2013-10-23 16:11:00,
2013-10-23 11:16:00,40.8,32.8,30.01,West,270,3.6,3.6,73,0.00,,,0.00,WUHU21623XXSP,2013-10-23 16:16:00,
2013-10-23 11:21:00,40.6,32.3,30.01,NW,315,1.6,3.6,72,0.00,,,0.00,WUHU21623XXSP,2013-10-23 16:21:00,
2013-10-23 11:26:00,41.2,32.5,30.01,WNW,292,4.9,4.9,71,0.00,,,0.00,WUHU21623XXSP,2013-10-23 16:26:00,
2013-10-23 11:31:00,40.8,31.8,30.01,North,0,0.0,4.9,70,0.00,,,0.00,WUHU21623XXSP,2013-10-23 16:31:00,
2013-10-23 11:36:00,40.6,31.6,30.01,WNW,292,0.0,3.6,70,0.00,,,0.00,WUHU21623XXSP,2013-10-23 16:36:00,
2013-10-23 11:41:00,40.5,31.1,30.01,WNW,292,3.6,3.6,69,0.00,,,0.00,WUHU21623XXSP,2013-10-23 16:41:00,
2013-10-23 11:46:00,40.5,31.1,30.01,West,270,0.0,3.6,69,0.00,,,0.00,WUHU21623XXSP,2013-10-23 16:46:00,
2013-10-23 11:51:00,40.8,31.4,30.01,WNW,292,7.2,7.2,69,0.00,,,0.00,WUHU21623XXSP,2013-10-23 16:51:00,
2013-10-23 11:56:00,41.5,31.8,30.01,WNW,292,3.1,7.2,68,0.00,,,0.00,WUHU21623XXSP,2013-10-23 16:56:00,
2013-10-23 12:01:00,41.4,31.2,30.01,NW,315,0.9,3.1,67,0.00,,,0.00,WUHU21623XXSP,2013-10-23 17:01:00,
2013-10-23 12:06:00,41.4,31.2,30.01,NW,315,0.0,0.9,67,0.00,,,0.00,WUHU21623XXSP,2013-10-23 17:06:00,
2013-10-23 12:11:00,41.7,31.6,30.01,NW,315,1.3,3.6,67,0.00,,,0.00,WUHU21623XXSP,2013-10-23 17:11:00,
2013-10-23 12:16:00,41.5,31.0,30.00,WNW,292,0.0,3.6,66,0.00,,,0.00,WUHU21623XXSP,2013-10-23 17:16:00,
2013-10-23 12:21:00,41.2,30.3,30.01,West,270,2.5,2.5,65,0.00,,,0.00,WUHU21623XXSP,2013-10-23 17:21:00,
2013-10-23 12:26:00,41.2,30.3,30.01,WSW,247,1.3,2.5,64,0.00,,,0.00,WUHU21623XXSP,2013-10-23 17:26:00,
2013-10-23 12:31:00,41.5,30.2,30.01,West,270,4.3,6.5,64,0.00,,,0.00,WUHU21623XXSP,2013-10-23 17:31:00,
2013-10-23 12:36:00,41.9,30.2,30.00,WNW,292,4.0,6.5,63,0.00,,,0.00,WUHU21623XXSP,2013-10-23 17:36:00,
2013-10-23 12:41:00,41.9,29.4,30.00,West,270,0.0,4.3,61,0.00,,,0.00,WUHU21623XXSP,2013-10-23 17:41:00,
2013-10-23 12:46:00,42.3,29.4,30.00,WNW,292,1.6,2.0,60,0.00,,,0.00,WUHU21623XXSP,2013-10-23 17:46:00,
2013-10-23 12:51:00,42.8,29.9,30.00,WNW,292,0.0,1.6,61,0.00,,,0.00,WUHU21623XXSP,2013-10-23 17:51:00,
2013-10-23 12:56:00,43.2,30.2,30.00,NNW,337,0.0,6.3,60,0.00,,,0.00,WUHU21623XXSP,2013-10-23 17:56:00,
2013-10-23 13:01:00,43.3,30.4,29.99,NW,315,5.1,6.3,60,0.00,,,0.00,WUHU21623XXSP,2013-10-23 18:01:00,
2013-10-23 13:06:00,43.0,29.1,29.99,WSW,247,0.0,5.1,58,0.00,,,0.00,WUHU21623XXSP,2013-10-23 18:06:00,
2013-10-23 13:11:00,42.4,28.6,29.99,WNW,292,0.0,1.8,58,0.00,,,0.00,WUHU21623XXSP,2013-10-23 18:11:00,
2013-10-23 13:16:00,42.6,28.8,29.99,NW,315,0.0,6.3,58,0.00,,,0.00,WUHU21623XXSP,2013-10-23 18:16:00,
2013-10-23 13:21:00,42.6,28.8,29.99,West,270,0.0,6.3,58,0.00,,,0.00,WUHU21623XXSP,2013-10-23 18:21:00,
2013-10-23 13:26:00,42.4,28.2,29.99,North,0,2.5,3.6,57,0.00,,,0.00,WUHU21623XXSP,2013-10-23 18:26:00,
2013-10-23 13:31:00,42.3,28.0,29.99,WSW,247,2.5,3.6,57,0.00,,,0.00,WUHU21623XXSP,2013-10-23 18:31:00,
2013-10-23 13:36:00,42.1,27.9,29.99,WSW,247,0.0,2.5,57,0.00,,,0.00,WUHU21623XXSP,2013-10-23 18:36:00,
2013-10-23 13:41:00,41.9,27.3,29.99,WNW,292,0.0,2.0,56,0.00,,,0.00,WUHU21623XXSP,2013-10-23 18:41:00,
2013-10-23 13:46:00,41.9,27.3,29.99,West,270,0.0,0.9,56,0.00,,,0.00,WUHU21623XXSP,2013-10-23 18:46:00,
2013-10-23 13:51:00,41.7,27.5,29.99,NNE,22,0.0,6.3,57,0.00,,,0.00,WUHU21623XXSP,2013-10-23 18:51:00,
2013-10-23 13:56:00,41.5,27.4,29.99,West,270,0.0,6.3,57,0.00,,,0.00,WUHU21623XXSP,2013-10-23 18:56:00,
2013-10-23 14:01:00,41.5,27.4,29.99,West,270,5.8,5.8,57,0.00,,,0.00,WUHU21623XXSP,2013-10-23 19:01:00,
2013-10-23 14:06:00,41.5,27.4,29.99,WNW,292,0.0,5.8,57,0.00,,,0.00,WUHU21623XXSP,2013-10-23 19:06:00,
2013-10-23 14:11:00,41.9,27.7,29.99,NW,315,2.0,5.1,57,0.00,,,0.00,WUHU21623XXSP,2013-10-23 19:11:00,
2013-10-23 14:16:00,41.9,27.3,29.99,NNW,337,2.5,2.5,56,0.00,,,0.00,WUHU21623XXSP,2013-10-23 19:16:00,
2013-10-23 14:21:00,42.1,27.0,29.99,West,270,0.0,2.5,55,0.00,,,0.00,WUHU21623XXSP,2013-10-23 19:21:00,
2013-10-23 14:26:00,41.9,26.4,29.99,NW,315,0.0,0.0,54,0.00,,,0.00,WUHU21623XXSP,2013-10-23 19:26:00,
2013-10-23 14:31:00,41.9,26.4,29.99,West,270,0.7,0.7,54,0.00,,,0.00,WUHU21623XXSP,2013-10-23 19:31:00,
2013-10-23 14:36:00,41.9,25.9,29.98,SW,225,0.0,2.0,53,0.00,,,0.00,WUHU21623XXSP,2013-10-23 19:36:00,
2013-10-23 14:41:00,41.9,25.5,29.99,WSW,247,0.0,2.0,52,0.00,,,0.00,WUHU21623XXSP,2013-10-23 19:41:00,
2013-10-23 14:46:00,41.9,25.1,29.99,WSW,247,3.8,5.4,51,0.00,,,0.00,WUHU21623XXSP,2013-10-23 19:46:00,
2013-10-23 14:51:00,41.7,23.9,29.99,WNW,292,0.2,5.4,49,0.00,,,0.00,WUHU21623XXSP,2013-10-23 19:51:00,
2013-10-23 14:56:00,41.7,24.4,29.99,West,270,0.0,1.8,50,0.00,,,0.00,WUHU21623XXSP,2013-10-23 19:56:00,
2013-10-23 15:01:00,41.7,24.4,29.99,West,270,0.4,2.0,50,0.00,,,0.00,WUHU21623XXSP,2013-10-23 20:01:00,
2013-10-23 15:06:00,41.5,24.3,29.99,WSW,247,1.1,2.0,50,0.00,,,0.00,WUHU21623XXSP,2013-10-23 20:06:00,
2013-10-23 15:11:00,41.5,24.3,29.99,West,270,2.9,2.9,50,0.00,,,0.00,WUHU21623XXSP,2013-10-23 20:11:00,
2013-10-23 15:16:00,41.5,24.3,29.99,WNW,292,3.8,3.8,50,0.00,,,0.00,WUHU21623XXSP,2013-10-23 20:16:00,
2013-10-23 15:21:00,41.5,24.7,29.99,WNW,292,0.0,3.8,51,0.00,,,0.00,WUHU21623XXSP,2013-10-23 20:21:00,
2013-10-23 15:26:00,41.5,24.7,29.99,NW,315,0.0,0.0,51,0.00,,,0.00,WUHU21623XXSP,2013-10-23 20:26:00,
2013-10-23 15:31:00,41.4,24.1,29.99,WSW,247,0.0,1.1,50,0.00,,,0.00,WUHU21623XXSP,2013-10-23 20:31:00,
2013-10-23 15:36:00,41.2,24.3,29.99,West,270,4.3,4.3,51,0.00,,,0.00,WUHU21623XXSP,2013-10-23 20:36:00,
2013-10-23 15:41:00,41.2,24.3,29.99,West,270,0.0,4.9,51,0.00,,,0.00,WUHU21623XXSP,2013-10-23 20:41:00,
2013-10-23 15:46:00,41.4,24.5,29.99,SW,225,1.1,4.9,51,0.00,,,0.00,WUHU21623XXSP,2013-10-23 20:46:00,
2013-10-23 15:51:00,41.7,24.4,29.99,WNW,292,4.5,4.5,50,0.00,,,0.00,WUHU21623XXSP,2013-10-23 20:51:00,
2013-10-23 15:56:00,41.7,24.4,29.99,WSW,247,6.0,6.0,50,0.00,,,0.00,WUHU21623XXSP,2013-10-23 20:56:00,
2013-10-23 16:01:00,41.5,23.7,29.99,West,270,3.4,6.0,49,0.00,,,0.00,WUHU21623XXSP,2013-10-23 21:01:00,
2013-10-23 16:06:00,41.2,23.4,29.99,West,270,0.0,3.4,49,0.00,,,0.00,WUHU21623XXSP,2013-10-23 21:06:00,
2013-10-23 16:11:00,41.0,22.7,29.99,NW,315,0.0,2.7,48,0.00,,,0.00,WUHU21623XXSP,2013-10-23 21:11:00,
2013-10-23 16:16:00,40.8,23.0,29.99,SW,225,2.2,5.6,49,0.00,,,0.00,WUHU21623XXSP,2013-10-23 21:16:00,
2013-10-23 16:21:00,40.6,22.9,29.99,SW,225,0.0,6.3,49,0.00,,,0.00,WUHU21623XXSP,2013-10-23 21:21:00,
2013-10-23 16:26:00,41.0,23.7,29.99,WSW,247,0.0,6.3,50,0.00,,,0.00,WUHU21623XXSP,2013-10-23 21:26:00,
2013-10-23 16:31:00,41.2,23.9,29.99,West,270,0.0,1.6,50,0.00,,,0.00,WUHU21623XXSP,2013-10-23 21:31:00,
2013-10-23 16:36:00,41.0,23.7,29.99,WSW,247,0.0,1.6,50,0.00,,,0.00,WUHU21623XXSP,2013-10-23 21:36:00,
2013-10-23 16:41:00,41.0,23.7,29.99,WNW,292,1.3,1.3,50,0.00,,,0.00,WUHU21623XXSP,2013-10-23 21:41:00,
2013-10-23 16:46:00,41.0,23.7,29.99,West,270,0.0,1.3,50,0.00,,,0.00,WUHU21623XXSP,2013-10-23 21:46:00,
2013-10-23 16:51:00,41.0,23.9,29.99,WSW,247,0.0,0.0,50,0.00,,,0.00,WUHU21623XXSP,2013-10-23 21:51:00,
2013-10-23 16:56:00,41.0,23.7,29.99,NW,315,0.0,6.0,50,0.00,,,0.00,WUHU21623XXSP,2013-10-23 21:56:00,
2013-10-23 17:01:00,41.2,23.9,29.99,WSW,247,0.0,6.0,50,0.00,,,0.00,WUHU21623XXSP,2013-10-23 22:01:00,
2013-10-23 17:06:00,40.8,23.6,30.00,NW,315,0.0,0.0,50,0.00,,,0.00,WUHU21623XXSP,2013-10-23 22:06:00,
2013-10-23 17:11:00,40.8,23.6,30.00,West,270,0.0,0.0,50,0.00,,,0.00,WUHU21623XXSP,2013-10-23 22:11:00,
2013-10-23 17:16:00,40.6,22.9,29.99,WNW,292,6.3,6.3,49,0.00,,,0.00,WUHU21623XXSP,2013-10-23 22:16:00,
2013-10-23 17:21:00,40.6,22.4,29.99,NW,315,0.0,6.3,48,0.00,,,0.00,WUHU21623XXSP,2013-10-23 22:21:00,
2013-10-23 17:26:00,40.5,22.2,30.00,WSW,247,0.0,6.3,48,0.00,,,0.00,WUHU21623XXSP,2013-10-23 22:26:00,
2013-10-23 17:31:00,40.5,22.2,29.99,West,270,0.0,0.0,48,0.00,,,0.00,WUHU21623XXSP,2013-10-23 22:31:00,
2013-10-23 17:36:00,40.5,22.2,30.00,WSW,247,0.0,0.0,48,0.00,,,0.00,WUHU21623XXSP,2013-10-23 22:36:00,
2013-10-23 17:41:00,40.3,22.5,30.00,WNW,292,0.0,0.0,49,0.00,,,0.00,WUHU21623XXSP,2013-10-23 22:41:00,
2013-10-23 17:46:00,40.1,22.4,30.00,NW,315,1.3,1.3,49,0.00,,,0.00,WUHU21623XXSP,2013-10-23 22:46:00,
2013-10-23 17:51:00,40.1,22.9,30.00,WSW,247,0.0,1.3,50,0.00,,,0.00,WUHU21623XXSP,2013-10-23 22:51:00,
2013-10-23 17:56:00,40.1,22.9,30.00,West,270,0.0,0.0,50,0.00,,,0.00,WUHU21623XXSP,2013-10-23 22:56:00,
2013-10-23 18:01:00,39.9,22.7,30.00,West,270,0.0,0.0,50,0.00,,,0.00,WUHU21623XXSP,2013-10-23 23:01:00,
2013-10-23 18:06:00,39.9,22.7,30.00,WSW,247,0.0,0.0,50,0.00,,,0.00,WUHU21623XXSP,2013-10-23 23:06:00,
2013-10-23 18:11:00,39.9,23.2,30.00,NW,315,0.0,0.0,51,0.00,,,0.00,WUHU21623XXSP,2013-10-23 23:11:00,
2013-10-23 18:16:00,39.7,23.0,30.00,WNW,292,0.0,0.0,51,0.00,,,0.00,WUHU21623XXSP,2013-10-23 23:16:00,
2013-10-23 18:21:00,39.6,22.9,30.00,WNW,292,0.0,0.0,51,0.00,,,0.00,WUHU21623XXSP,2013-10-23 23:21:00,
2013-10-23 18:26:00,39.7,23.0,30.00,SW,225,0.0,0.0,51,0.00,,,0.00,WUHU21623XXSP,2013-10-23 23:26:00,
2013-10-23 18:31:00,39.6,22.9,29.99,West,270,0.0,0.0,51,0.00,,,0.00,WUHU21623XXSP,2013-10-23 23:31:00,
2013-10-23 18:36:00,39.6,22.9,30.00,West,270,0.0,0.0,51,0.00,,,0.00,WUHU21623XXSP,2013-10-23 23:36:00,
2013-10-23 18:41:00,39.4,22.7,30.00,WSW,247,0.0,0.0,51,0.00,,,0.00,WUHU21623XXSP,2013-10-23 23:41:00,
2013-10-23 18:46:00,39.2,23.0,30.00,NNW,337,0.0,1.3,52,0.00,,,0.00,WUHU21623XXSP,2013-10-23 23:46:00,
2013-10-23 18:51:00,39.0,22.8,30.00,NW,315,0.0,1.3,52,0.00,,,0.00,WUHU21623XXSP,2013-10-23 23:51:00,
2013-10-23 18:56:00,38.8,22.6,30.00,West,270,0.0,0.0,52,0.00,,,0.00,WUHU21623XXSP,2013-10-23 23:56:00,
2013-10-23 19:01:00,38.8,22.6,30.01,West,270,2.5,2.5,52,0.00,,,0.00,WUHU21623XXSP,2013-10-24 00:01:00,
2013-10-23 19:06:00,38.8,23.1,30.00,West,270,0.0,2.5,53,0.00,,,0.00,WUHU21623XXSP,2013-10-24 00:06:00,
2013-10-23 19:11:00,38.8,23.1,30.01,NNW,337,0.0,2.5,53,0.00,,,0.00,WUHU21623XXSP,2013-10-24 00:11:00,
2013-10-23 19:16:00,38.8,23.1,30.01,West,270,0.0,0.0,53,0.00,,,0.00,WUHU21623XXSP,2013-10-24 00:16:00,
2013-10-23 19:21:00,38.8,23.1,30.01,West,270,5.1,5.1,53,0.00,,,0.00,WUHU21623XXSP,2013-10-24 00:21:00,
2013-10-23 19:26:00,38.7,23.3,30.01,WSW,247,0.0,5.1,54,0.00,,,0.00,WUHU21623XXSP,2013-10-24 00:26:00,
2013-10-23 19:31:00,38.7,23.3,30.01,WSW,247,0.0,5.1,54,0.00,,,0.00,WUHU21623XXSP,2013-10-24 00:31:00,
2013-10-23 19:36:00,38.7,23.3,30.01,NW,315,0.0,0.0,54,0.00,,,0.00,WUHU21623XXSP,2013-10-24 00:36:00,
2013-10-23 19:41:00,38.7,23.8,30.01,West,270,0.0,0.0,55,0.00,,,0.00,WUHU21623XXSP,2013-10-24 00:41:00,
2013-10-23 19:46:00,38.7,23.8,30.01,WSW,247,0.0,0.0,55,0.00,,,0.00,WUHU21623XXSP,2013-10-24 00:46:00,
2013-10-23 19:51:00,38.5,23.6,30.01,West,270,0.9,0.9,55,0.00,,,0.00,WUHU21623XXSP,2013-10-24 00:51:00,
2013-10-23 19:56:00,38.5,24.0,30.01,WNW,292,0.9,0.9,56,0.00,,,0.00,WUHU21623XXSP,2013-10-24 00:56:00,
2013-10-23 20:01:00,38.3,23.9,30.01,West,270,0.0,1.1,56,0.00,,,0.00,WUHU21623XXSP,2013-10-24 01:01:00,
2013-10-23 20:06:00,38.3,23.9,30.01,West,270,0.0,1.1,56,0.00,,,0.00,WUHU21623XXSP,2013-10-24 01:06:00,
2013-10-23 20:11:00,38.3,24.3,30.01,West,270,0.0,0.0,57,0.00,,,0.00,WUHU21623XXSP,2013-10-24 01:11:00,
2013-10-23 20:16:00,38.3,24.3,30.01,WSW,247,0.0,0.0,57,0.00,,,0.00,WUHU21623XXSP,2013-10-24 01:16:00,
2013-10-23 20:21:00,38.3,24.3,30.01,WSW,247,0.0,0.0,57,0.00,,,0.00,WUHU21623XXSP,2013-10-24 01:21:00,
2013-10-23 20:26:00,38.1,24.6,30.01,WNW,292,6.0,6.0,58,0.00,,,0.00,WUHU21623XXSP,2013-10-24 01:26:00,
2013-10-23 20:31:00,38.1,24.6,30.01,WSW,247,0.0,6.0,58,0.00,,,0.00,WUHU21623XXSP,2013-10-24 01:31:00,
2013-10-23 20:36:00,38.1,24.6,30.02,WSW,247,0.0,0.0,58,0.00,,,0.00,WUHU21623XXSP,2013-10-24 01:36:00,
2013-10-23 20:41:00,38.1,25.0,30.01,WNW,292,0.0,2.5,59,0.00,,,0.00,WUHU21623XXSP,2013-10-24 01:41:00,
2013-10-23 20:46:00,38.1,25.0,30.01,WSW,247,0.0,2.5,59,0.00,,,0.00,WUHU21623XXSP,2013-10-24 01:46:00,
2013-10-23 20:51:00,38.1,25.0,30.01,WNW,292,1.3,1.3,59,0.00,,,0.00,WUHU21623XXSP,2013-10-24 01:51:00,
2013-10-23 20:56:00,37.9,25.3,30.02,WSW,247,1.8,1.8,60,0.00,,,0.00,WUHU21623XXSP,2013-10-24 01:56:00,
2013-10-23 21:01:00,37.9,25.3,30.02,West,270,0.0,1.8,60,0.00,,,0.00,WUHU21623XXSP,2013-10-24 02:01:00,
2013-10-23 21:06:00,37.9,25.3,30.02,West,270,0.0,1.1,60,0.00,,,0.00,WUHU21623XXSP,2013-10-24 02:06:00,
2013-10-23 21:11:00,37.9,25.7,30.01,WNW,292,2.9,2.9,61,0.00,,,0.00,WUHU21623XXSP,2013-10-24 02:11:00,
2013-10-23 21:16:00,37.9,25.7,30.01,WSW,247,0.7,2.9,61,0.00,,,0.00,WUHU21623XXSP,2013-10-24 02:16:00,
2013-10-23 21:21:00,37.9,26.0,30.01,WSW,247,0.0,0.7,62,0.00,,,0.00,WUHU21623XXSP,2013-10-24 02:21:00,
2013-10-23 21:26:00,37.8,25.9,30.01,West,270,0.0,2.0,62,0.00,,,0.00,WUHU21623XXSP,2013-10-24 02:26:00,
2013-10-23 21:31:00,37.8,25.9,30.02,WSW,247,0.0,2.0,62,0.00,,,0.00,WUHU21623XXSP,2013-10-24 02:31:00,
2013-10-23 21:36:00,37.8,26.3,30.02,WNW,292,0.0,0.7,63,0.00,,,0.00,WUHU21623XXSP,2013-10-24 02:36:00,
2013-10-23 21:41:00,37.8,26.3,30.02,West,270,0.0,4.3,63,0.00,,,0.00,WUHU21623XXSP,2013-10-24 02:41:00,
2013-10-23 21:46:00,37.8,26.3,30.01,WNW,292,1.1,4.3,63,0.00,,,0.00,WUHU21623XXSP,2013-10-24 02:46:00,
2013-10-23 21:51:00,37.6,26.5,30.02,West,270,0.0,1.1,64,0.00,,,0.00,WUHU21623XXSP,2013-10-24 02:51:00,
2013-10-23 21:56:00,37.6,26.5,30.02,WSW,247,0.0,1.3,64,0.00,,,0.00,WUHU21623XXSP,2013-10-24 02:56:00,
2013-10-23 22:01:00,37.8,26.6,30.02,WSW,247,0.0,1.3,64,0.00,,,0.00,WUHU21623XXSP,2013-10-24 03:01:00,
2013-10-23 22:06:00,37.6,26.9,30.02,West,270,3.4,3.4,65,0.00,,,0.00,WUHU21623XXSP,2013-10-24 03:06:00,
2013-10-23 22:11:00,37.6,26.9,30.02,West,270,1.3,3.4,65,0.00,,,0.00,WUHU21623XXSP,2013-10-24 03:11:00,
2013-10-23 22:16:00,37.6,26.9,30.02,WSW,247,0.0,1.3,65,0.00,,,0.00,WUHU21623XXSP,2013-10-24 03:16:00,
2013-10-23 22:21:00,37.6,26.9,30.02,WSW,247,0.0,0.9,65,0.00,,,0.00,WUHU21623XXSP,2013-10-24 03:21:00,
2013-10-23 22:26:00,37.6,27.2,30.02,West,270,0.9,0.9,66,0.00,,,0.00,WUHU21623XXSP,2013-10-24 03:26:00,
2013-10-23 22:31:00,37.6,27.2,30.02,West,270,0.0,0.9,66,0.00,,,0.00,WUHU21623XXSP,2013-10-24 03:31:00,
2013-10-23 22:36:00,37.4,27.1,30.02,West,270,0.0,2.5,66,0.00,,,0.00,WUHU21623XXSP,2013-10-24 03:36:00,
2013-10-23 22:41:00,37.4,27.1,30.02,West,270,0.0,2.5,66,0.00,,,0.00,WUHU21623XXSP,2013-10-24 03:41:00,
2013-10-23 22:46:00,37.4,27.1,30.02,West,270,0.0,0.0,66,0.00,,,0.00,WUHU21623XXSP,2013-10-24 03:46:00,
2013-10-23 22:51:00,37.4,27.4,30.02,WNW,292,1.3,1.3,67,0.00,,,0.00,WUHU21623XXSP,2013-10-24 03:51:00,
2013-10-23 22:56:00,37.0,27.1,30.02,WSW,247,0.0,3.4,67,0.00,,,0.00,WUHU21623XXSP,2013-10-24 03:56:00,
2013-10-23 23:01:00,37.0,27.1,30.02,West,270,0.0,3.4,67,0.00,,,0.00,WUHU21623XXSP,2013-10-24 04:01:00,
2013-10-23 23:06:00,37.2,27.3,30.02,WNW,292,0.0,0.0,67,0.00,,,0.00,WUHU21623XXSP,2013-10-24 04:06:00,
2013-10-23 23:11:00,37.0,27.1,30.02,WSW,247,0.0,0.0,67,0.00,,,0.00,WUHU21623XXSP,2013-10-24 04:11:00,
2013-10-23 23:16:00,37.0,27.5,30.02,WNW,292,0.0,1.1,68,0.00,,,0.00,WUHU21623XXSP,2013-10-24 04:16:00,
2013-10-23 23:21:00,37.0,27.5,30.02,West,270,0.0,1.1,68,0.00,,,0.00,WUHU21623XXSP,2013-10-24 04:21:00,
2013-10-23 23:26:00,37.0,27.5,30.02,West,270,0.0,0.0,68,0.00,,,0.00,WUHU21623XXSP,2013-10-24 04:26:00,
2013-10-23 23:31:00,37.0,27.5,30.02,WNW,292,0.0,0.0,68,0.00,,,0.00,WUHU21623XXSP,2013-10-24 04:31:00,
2013-10-23 23:36:00,37.0,27.8,30.02,West,270,0.0,0.0,69,0.00,,,0.00,WUHU21623XXSP,2013-10-24 04:36:00,
2013-10-23 23:41:00,37.0,27.8,30.02,West,270,0.0,0.0,69,0.00,,,0.00,WUHU21623XXSP,2013-10-24 04:41:00,
2013-10-23 23:46:00,37.0,27.8,30.02,WNW,292,0.0,0.0,69,0.00,,,0.00,WUHU21623XXSP,2013-10-24 04:46:00,
2013-10-23 23:51:00,36.9,27.3,30.02,NW,315,0.4,0.4,68,0.00,,,0.00,WUHU21623XXSP,2013-10-24 04:51:00,
2013-10-23 23:56:00,36.9,27.3,30.02,North,0,0.0,0.4,68,0.00,,,0.00,WUHU21623XXSP,2013-10-24 04:56:00,